• In Portugal
  • List of Countries
  • For 7 days
  • Water Temperature
  • Satellite Maps
  • Weather Map
  • Weather Widgets
  • user-avatar
    Login

    Hourly Weather Side

    Today, 23 October, Monday

    Time Temperature Precipitation Wind Pressure Humidity
    00:00 +20°C° 0 mm 1 mps 759 mmHg 66%
    01:00 +20°C° 0 mm 1 mps 759 mmHg 65%
    02:00 +20°C° 0 mm 1 mps 759 mmHg 64%
    03:00 +20°C° 0 mm 1 mps 758 mmHg 63%
    04:00 +19°C° 0 mm 1 mps 758 mmHg 63%
    05:00 +18°C° 0 mm 2 mps 758 mmHg 62%
    06:00 +20°C° 0 mm 2 mps 758 mmHg 58%
    07:00 +21°C° 0 mm 2 mps 759 mmHg 54%
    08:00 +24°C° 0 mm 2 mps 759 mmHg 49%
    09:00 +25°C° 0 mm 2 mps 759 mmHg 46%
    10:00 +26°C° 0 mm 2 mps 758 mmHg 43%
    11:00 +27°C° 0 mm 3 mps 758 mmHg 41%
    12:00 +27°C° 0 mm 3 mps 758 mmHg 42%
    13:00 +27°C° 0 mm 3 mps 758 mmHg 43%
    14:00 +27°C° 0 mm 3 mps 757 mmHg 44%
    15:00 +25°C° 0 mm 3 mps 757 mmHg 50%
    16:00 +24°C° 0 mm 3 mps 757 mmHg 56%
    17:00 +22°C° 0 mm 3 mps 757 mmHg 62%
    18:00 +21°C° 0 mm 3 mps 757 mmHg 65%
    19:00 +20°C° 0 mm 3 mps 758 mmHg 68%
    20:00 +19°C° 0 mm 3 mps 758 mmHg 72%
    21:00 +19°C° 0 mm 3 mps 758 mmHg 69%
    22:00 +19°C° 0 mm 3 mps 758 mmHg 66%
    23:00 +19°C° 0 mm 3 mps 758 mmHg 62%

    Tomorrow, 24 October, Tuesday

    Time Temperature Precipitation Wind Pressure Humidity
    00:00 +19°C° 0.1 mm 3 mps 758 mmHg 62%
    01:00 +19°C° 0.1 mm 3 mps 757 mmHg 61%
    02:00 +19°C° 0.1 mm 3 mps 757 mmHg 60%
    03:00 +19°C° 0.1 mm 3 mps 757 mmHg 62%
    04:00 +19°C° 0.1 mm 3 mps 757 mmHg 64%
    05:00 +19°C° 0.1 mm 3 mps 757 mmHg 65%
    06:00 +20°C° 0.3 mm 4 mps 757 mmHg 64%
    07:00 +20°C° 0.3 mm 4 mps 757 mmHg 62%
    08:00 +21°C° 0.3 mm 4 mps 757 mmHg 61%
    09:00 +22°C° 0.5 mm 4 mps 757 mmHg 60%
    10:00 +23°C° 0.5 mm 5 mps 757 mmHg 59%
    11:00 +24°C° 0.5 mm 6 mps 757 mmHg 58%
    12:00 +23°C° 1.5 mm 6 mps 757 mmHg 62%
    13:00 +23°C° 1.5 mm 7 mps 756 mmHg 65%
    14:00 +22°C° 1.5 mm 7 mps 756 mmHg 69%
    15:00 +22°C° 1.8 mm 6 mps 756 mmHg 73%
    16:00 +21°C° 1.8 mm 6 mps 756 mmHg 78%
    17:00 +20°C° 1.8 mm 5 mps 756 mmHg 82%
    18:00 +20°C° 1.4 mm 5 mps 756 mmHg 83%
    19:00 +20°C° 1.4 mm 6 mps 757 mmHg 84%
    20:00 +20°C° 1.4 mm 6 mps 757 mmHg 85%
    21:00 +20°C° 1.8 mm 7 mps 757 mmHg 85%
    22:00 +20°C° 1.8 mm 7 mps 757 mmHg 85%
    23:00 +20°C° 1.8 mm 8 mps 757 mmHg 86%

    Day after tomorrow, 25 October, Wednesday

    Time Temperature Precipitation Wind Pressure Humidity
    00:00 +20°C° 2.7 mm 8 mps 757 mmHg 86%
    01:00 +20°C° 2.7 mm 7 mps 757 mmHg 87%
    02:00 +20°C° 2.7 mm 7 mps 757 mmHg 87%
    03:00 +20°C° 3.2 mm 7 mps 757 mmHg 87%
    04:00 +20°C° 3.2 mm 7 mps 757 mmHg 87%
    05:00 +20°C° 3.2 mm 6 mps 757 mmHg 87%
    06:00 +20°C° 2 mm 6 mps 758 mmHg 86%
    07:00 +20°C° 2 mm 6 mps 758 mmHg 85%
    08:00 +20°C° 2 mm 5 mps 759 mmHg 83%
    09:00 +21°C° 1.5 mm 5 mps 759 mmHg 82%
    10:00 +21°C° 1.5 mm 5 mps 759 mmHg 81%
    11:00 +21°C° 1.5 mm 5 mps 760 mmHg 79%
    12:00 +21°C° 1.6 mm 5 mps 759 mmHg 78%
    13:00 +21°C° 1.6 mm 5 mps 759 mmHg 78%
    14:00 +21°C° 1.6 mm 5 mps 759 mmHg 77%
    15:00 +21°C° 0.9 mm 5 mps 760 mmHg 78%
    16:00 +20°C° 0.9 mm 4 mps 760 mmHg 78%
    17:00 +20°C° 0.9 mm 4 mps 760 mmHg 79%
    18:00 +19°C° 0.7 mm 4 mps 761 mmHg 79%
    19:00 +18°C° 0.7 mm 3 mps 761 mmHg 79%
    20:00 +18°C° 0.7 mm 3 mps 762 mmHg 80%
    21:00 +18°C° 0.5 mm 3 mps 762 mmHg 80%
    22:00 +17°C° 0.5 mm 3 mps 762 mmHg 80%
    23:00 +17°C° 0.5 mm 3 mps 762 mmHg 80%

    26 October, Thursday

    Time Temperature Precipitation Wind Pressure Humidity
    00:00 +17°C° 0.1 mm 3 mps 762 mmHg 79%
    01:00 +17°C° 0.1 mm 2 mps 762 mmHg 78%
    02:00 +16°C° 0.1 mm 2 mps 762 mmHg 77%
    03:00 +16°C° 0 mm 3 mps 763 mmHg 75%
    04:00 +16°C° 0 mm 3 mps 763 mmHg 73%
    05:00 +16°C° 0 mm 3 mps 763 mmHg 71%
    06:00 +17°C° 0 mm 3 mps 763 mmHg 68%
    07:00 +18°C° 0 mm 2 mps 763 mmHg 64%
    08:00 +19°C° 0 mm 2 mps 764 mmHg 60%
    09:00 +21°C° 0 mm 2 mps 764 mmHg 56%
    10:00 +23°C° 0 mm 2 mps 764 mmHg 51%
    11:00 +24°C° 0 mm 2 mps 764 mmHg 47%
    12:00 +25°C° 0 mm 2 mps 763 mmHg 46%
    13:00 +25°C° 0 mm 2 mps 763 mmHg 45%
    14:00 +25°C° 0 mm 2 mps 762 mmHg 44%
    15:00 +24°C° 0 mm 2 mps 762 mmHg 50%
    16:00 +23°C° 0 mm 2 mps 762 mmHg 57%
    17:00 +20°C° 0 mm 3 mps 762 mmHg 63%
    18:00 +20°C° 0 mm 2 mps 763 mmHg 63%
    19:00 +20°C° 0 mm 2 mps 763 mmHg 62%
    20:00 +19°C° 0 mm 2 mps 763 mmHg 62%
    21:00 +19°C° 0 mm 2 mps 763 mmHg 61%
    22:00 +19°C° 0 mm 2 mps 763 mmHg 59%
    23:00 +19°C° 0 mm 2 mps 763 mmHg 58%

    27 October, Friday

    Time Temperature Precipitation Wind Pressure Humidity
    00:00 +19°C° 0 mm 3 mps 763 mmHg 59%
    01:00 +19°C° 0 mm 3 mps 763 mmHg 59%
    02:00 +18°C° 0 mm 3 mps 763 mmHg 60%
    03:00 +18°C° 0 mm 3 mps 763 mmHg 61%
    04:00 +18°C° 0 mm 3 mps 763 mmHg 63%
    05:00 +18°C° 0 mm 3 mps 763 mmHg 64%
    06:00 +19°C° 0 mm 3 mps 762 mmHg 62%
    07:00 +19°C° 0 mm 3 mps 762 mmHg 60%
    08:00 +20°C° 0 mm 3 mps 762 mmHg 58%
    09:00 +22°C° 0 mm 3 mps 762 mmHg 50%
    10:00 +24°C° 0 mm 2 mps 762 mmHg 43%
    11:00 +26°C° 0 mm 2 mps 761 mmHg 36%
    12:00 +26°C° 0 mm 1 mps 761 mmHg 35%
    13:00 +26°C° 0 mm 1 mps 760 mmHg 34%
    14:00 +26°C° 0 mm 1 mps 759 mmHg 34%
    15:00 +24°C° 0 mm 1 mps 759 mmHg 39%
    16:00 +23°C° 0 mm 1 mps 759 mmHg 45%
    17:00 +21°C° 0 mm 1 mps 759 mmHg 51%
    18:00 +21°C° 0 mm 1 mps 759 mmHg 52%
    19:00 +20°C° 0 mm 1 mps 759 mmHg 53%
    20:00 +20°C° 0 mm 1 mps 759 mmHg 53%
    21:00 +20°C° 0 mm 1 mps 758 mmHg 53%
    22:00 +18°C° 0 mm 2 mps 758 mmHg 53%
    23:00 +18°C° 0 mm 2 mps 758 mmHg 52%

    28 October, Saturday

    Time Temperature Precipitation Wind Pressure Humidity
    00:00 +18°C° 0 mm 2 mps 758 mmHg 51%
    01:00 +18°C° 0 mm 2 mps 757 mmHg 50%
    02:00 +18°C° 0 mm 2 mps 757 mmHg 49%
    03:00 +17°C° 0 mm 2 mps 757 mmHg 47%
    04:00 +17°C° 0 mm 2 mps 757 mmHg 45%
    05:00 +17°C° 0 mm 2 mps 757 mmHg 43%
    06:00 +18°C° 0 mm 2 mps 757 mmHg 42%
    07:00 +19°C° 0 mm 2 mps 757 mmHg 40%
    08:00 +21°C° 0 mm 2 mps 757 mmHg 38%
    09:00 +23°C° 0 mm 1 mps 757 mmHg 38%
    10:00 +24°C° 0 mm 1 mps 757 mmHg 37%
    11:00 +25°C° 0 mm 1 mps 757 mmHg 37%
    12:00 +25°C° 0 mm 1 mps 757 mmHg 37%
    13:00 +25°C° 0 mm 2 mps 757 mmHg 38%
    14:00 +25°C° 0 mm 2 mps 756 mmHg 38%
    15:00 +24°C° 0 mm 2 mps 757 mmHg 44%
    16:00 +21°C° 0 mm 2 mps 757 mmHg 50%
    17:00 +20°C° 0 mm 2 mps 757 mmHg 56%
    18:00 +19°C° 0 mm 2 mps 757 mmHg 58%
    19:00 +19°C° 0 mm 2 mps 758 mmHg 59%
    20:00 +18°C° 0 mm 2 mps 758 mmHg 61%
    21:00 +18°C° 0 mm 3 mps 758 mmHg 60%
    22:00 +18°C° 0 mm 3 mps 758 mmHg 59%
    23:00 +18°C° 0 mm 3 mps 759 mmHg 58%
    Show more